Regional Weather Roundup
Issued by NWS Lake Charles, LA

Home | Current Version | Previous Version | Text Only | Print | Product List | Glossary On
Versions: 1 2 3 4 5 6 7 8 9 10 11 12 13 14 15 16 17 18 19 20 21 22 23 24 25 26 27 28 29 30 31 32 33 34 35 36 37 38 39 40 41 42 43 44 45 46 47 48 49 50
000
ASUS44 KLCH 210910
RWRLCH
RWRLCH
REGIONAL WEATHER ROUNDUP
NATIONAL WEATHER SERVICE LAKE CHARLES LA
400 AM CDT TUE OCT 21 2014

Note: "fair" indicates few or no clouds below 12,000 feet with no
significant weather and/or obstructions to visibility.


ACROSS SOUTHEAST TEXAS

CITY           SKY/WX    TMP DP  RH WIND       PRES   REMARKS
BEAUMONT       PTCLDY    61  56  83 NE7       30.00F
BEAUMONT CITY    N/A     54  54  99 N3        30.02S
ORANGE         SUNNY    N/A N/A N/A CALM      30.03S
JASPER         CLEAR     51  50  97 CALM      30.05R FOG
$$

ACROSS CENTRAL LOUISIANA

CITY           SKY/WX    TMP DP  RH WIND       PRES   REMARKS
LEESVILLE      CLEAR     60  53  78 NE3       30.01F
FULLERTON        N/A     57  53  86 CALM      30.00S
ALEXANDRIA INT CLEAR     55  54  96 CALM      30.01S
ESLER FIELD    CLEAR     53  51  93 CALM      30.03S
DERIDDER         N/A     56  53  88 CALM      30.04S
OAKDALE        SUNNY     51  50  95 CALM      30.01F
OPELOUSAS        N/A     53  52  98 CALM      30.01S
$$

ACROSS SOUTHWEST AND SOUTH CENTRAL LOUISIANA

CITY           SKY/WX    TMP DP  RH WIND       PRES   REMARKS
SULPHUR        SUNNY     56  55  97 N3        30.02S
LAKE CHARLES   CLEAR     56  54  93 CALM      30.01S
CHENNAULT INT  CLEAR     56  55  93 CALM      30.02S
CAMERON PHI      N/A     61  57  88 CALM      30.03S
DEQUINCY         N/A     52  51  98 CALM      30.02S
JENNINGS         N/A     57  55  92 CALM      30.01S
LAFAYETTE      CLEAR     57  54  89 NE3       30.00F
NEW IBERIA     CLEAR     60  55  83 CALM      30.01F
ABBEVILLE        N/A     53  53  99 CALM      30.01S
PATTERSON      NOT AVBL
SALT POINT       N/A     62  58  86 CALM      29.99S
$$

SELECTED SITES ACROSS THE REGION

CITY           SKY/WX    TMP DP  RH WIND       PRES   REMARKS
HOUSTON BUSH   CLEAR     59  56  89 CALM      30.01S
HOUSTON HOBBY  MOCLDY    64  58  80 NE3       29.99F
GALVESTON      CLEAR     69  64  84 NE10      29.99F
COLLEGE STAT   PTCLDY    60  57  89 NE5       30.02S
CONROE         PTCLDY    54  52  93 CALM      30.03R
HUNTSVILLE     PTCLDY    57  54  89 CALM      30.02F
LUFKIN         CLEAR     54  50  86 CALM      30.03S
SHREVEPORT     CLEAR     57  54  89 CALM      30.03S
MONROE         PTCLDY    54  54 100 CALM      30.05S FOG
NATCHEZ MS     CLEAR     52  48  87 CALM      30.03S
BATON ROUGE    CLEAR     56  52  86 NE3       30.01S
N.O. INTL ARPT PTCLDY    61  54  77 CALM      30.00S
SLIDELL        CLEAR     52  49  89 CALM      30.00S
$$

MARINE REPORTS

STATION/POSITION TIME  TEMP    WIND        PRES    VSBY  WAVE
                       AIR SEA DIR/SP/G                  HT/PER
                 (UTC) (F)     (DEG/KT/KT) (MB)    (MI)  (FT/S)
BUOY 30 S HIGH I 0900   75 78   70/ 14/ 16 1014.9F         2/ 6
SEA RIM ST PARK  0900   62      50/  6/  7 1016.5F
PORT ARTHUR      0900      76   50/  1/  2 1016.1S
SABINE PASS N    0900   64 75   50/  6/  7 1016.0F
TEXAS POINT      0900   63 75   40/  8/  9 1016.1F
CALCASIEU PASS   0900   63 76   70/  5/  6   N/A
LK CHARLES BEACH 0900   60 76              1016.3S
MARSH ISLAND     NOT AVBL
FRESH WATER LOCK 0900   63 76   20/  5/  7 1015.8R
AMERADA PASS     0900   63 72   50/  1/  5 1015.7R
$$



USA.gov is the U.S. government's official web portal to all federal, state and local government web resources and services.